1534802401.14,15036,22.25,74582.0,7.85,-5.55,-8.59,0,*77
1534802402.33,15037,22.25,74584.5,7.85,-5.55,-8.59,0,*76
1534802403.55,15038,22.25,74586.3,7.85,-5.47,-8.51,0,*72
1534802404.76,15039,22.25,74580.8,7.83,-5.51,-8.55,0,*76
1534802405.99,15040,22.25,74580.3,7.83,-5.61,-8.55,0,*7B
1534802407.18,15041,22.25,74580.5,7.85,-5.47,-8.45,0,*79
1534802408.37,15042,22.25,74580.0,7.85,-5.43,-8.45,0,*7E
1534802409.56,15043,22.25,74582.0,7.85,-5.43,-8.45,0,*7F
1534802410.76,15044,22.25,74582.3,7.85,-5.47,-8.45,0,*7C
1534802411.98,15045,22.25,74582.3,7.85,-5.61,-8.45,0,*79
1534802413.18,15046,22.25,74586.5,7.85,-5.55,-8.37,0,*78
1534802414.38,15047,22.25,74586.5,7.85,-5.55,-8.37,0,*79
1534802415.6,15048,22.25,74586.8,7.85,-5.61,-8.37,0,*71
1534802416.81,15049,22.25,74586.3,7.85,-5.61,-8.33,0,*74
1534802418.0,15050,22.25,74586.5,7.85,-5.55,-8.33,0,*7B
1534802419.2,15051,22.25,74586.3,7.85,-5.47,-8.25,0,*7E
1534802420.41,15052,22.25,74590.0,7.83,-5.39,-8.25,0,*72
1534802421.62,15053,22.25,74586.8,7.83,-5.47,-8.25,0,*7A
1534802422.86,15054,22.25,74588.5,7.83,-5.31,-8.17,0,*7D
1534802424.1,15055,22.25,74590.3,7.85,-5.19,-7.99,0,*79
1534802425.35,15056,22.25,74586.3,7.85,-5.31,-7.99,0,*70
1534802426.6,15057,22.25,74588.5,7.85,-5.31,-8.07,0,*79
1534802427.84,15058,22.25,74588.0,7.85,-5.27,-7.99,0,*79
1534802429.06,15059,22.25,74588.5,7.85,-5.15,-7.87,0,*76
1534802430.31,15060,22.25,74590.3,7.85,-5.19,-7.77,0,*7F
1534802431.58,15061,22.25,74590.5,7.87,-5.31,-7.95,0,*7A
1534802432.8,15062,22.25,74586.5,7.85,-5.27,-7.87,0,*7F
1534802434.02,15063,22.25,74584.5,7.85,-5.27,-7.87,0,*7E
1534802435.26,15064,22.25,74588.0,7.85,-5.27,-7.77,0,*76
1534802436.51,15065,22.25,74586.8,7.85,-5.19,-7.65,0,*79
1534802437.78,15066,22.25,74584.0,7.87,-5.19,-7.69,0,*74
1534802439.02,15067,22.25,74580.3,7.85,-5.19,-7.69,0,*77
1534802440.29,15068,22.25,74588.0,7.87,-5.19,-7.65,0,*76
1534802441.56,15069,22.25,74584.8,7.87,-5.19,-7.57,0,*76
1534802442.83,15070,22.25,74586.3,7.87,-5.27,-7.65,0,*72
1534802444.09,15071,22.25,74584.8,7.87,-5.27,-7.69,0,*7F
1534802445.36,15072,22.25,74584.5,7.87,-5.27,-7.69,0,*7C
1534802446.63,15073,22.25,74580.8,7.87,-5.27,-7.65,0,*71
1534802447.87,15074,22.25,74582.8,7.87,-5.19,-7.53,0,*7E
1534802449.11,15075,22.25,74584.3,7.87,-5.19,-7.53,0,*7F
1534802450.35,15076,22.25,74586.3,7.87,-5.19,-7.53,0,*7C
1534802451.6,15077,22.25,74586.8,7.87,-5.31,-7.53,0,*77
1534802452.87,15078,22.25,74582.5,7.87,-5.31,-7.65,0,*7D
1534802454.14,15079,22.25,74584.5,7.87,-5.19,-7.43,0,*72
1534802455.41,15080,22.25,74584.0,7.87,-5.27,-7.43,0,*79
1534802456.67,15081,22.25,74586.0,7.85,-5.15,-7.43,0,*7B
1534802457.94,15082,22.25,74588.8,7.87,-5.19,-7.43,0,*76
1534802459.21,15083,22.25,74584.8,7.87,-5.27,-7.43,0,*7A
1534802460.48,15084,22.25,74582.8,7.87,-5.15,-7.39,0,*71
1534802461.73,15085,22.25,74584.0,7.89,-5.15,-7.27,0,*71
1534802462.97,15086,22.25,74586.8,7.89,-5.11,-7.27,0,*76
1534802464.21,15087,22.25,74584.0,7.89,-5.11,-7.27,0,*77
1534802465.43,15088,22.25,74578.8,7.89,-5.15,-7.23,0,*78
1534802466.66,15089,22.25,74582.8,7.89,-5.15,-7.23,0,*79
1534802467.88,15090,22.25,74586.5,7.89,-5.15,-7.23,0,*71
1534802469.12,15091,22.25,74582.3,7.89,-5.11,-7.27,0,*70
1534802470.33,15092,22.25,74580.0,7.89,-5.11,-7.15,0,*72
1534802471.54,15093,22.25,74582.0,7.89,-4.99,-6.97,0,*79
1534802472.75,15094,22.25,74586.5,7.89,-4.99,-7.01,0,*70
1534802473.97,15095,22.25,74584.0,7.89,-5.15,-7.15,0,*71
1534802475.19,15096,22.25,74584.8,7.89,-5.11,-7.11,0,*72
1534802476.42,15097,22.25,74584.8,7.89,-5.15,-7.11,0,*77
1534802477.64,15098,22.25,74586.5,7.89,-5.11,-7.11,0,*7C
1534802478.87,15099,22.25,74588.5,7.89,-5.11,-6.97,0,*72
1534802480.11,15100,22.25,74586.3,7.89,-5.11,-7.01,0,*7D
1534802481.35,15101,22.25,74584.0,7.93,-5.11,-6.97,0,*79
1534802482.57,15102,22.25,74584.0,7.89,-5.15,-7.11,0,*7A
1534802483.81,15103,22.25,74586.8,7.93,-5.23,-7.05,0,*70
1534802485.06,15104,22.25,74580.3,7.89,-5.23,-7.01,0,*78
1534802486.28,15105,22.25,74582.3,7.89,-5.27,-7.11,0,*7C
1534802487.52,15106,22.25,74584.5,7.89,-5.23,-7.01,0,*7A
1534802488.77,15107,22.25,74584.5,7.89,-5.23,-6.93,0,*71
1534802490.01,15108,22.25,74580.8,7.89,-5.27,-7.01,0,*70
1534802491.25,15109,22.25,74582.8,7.93,-5.27,-6.93,0,*70
1534802492.49,15110,22.25,74584.3,7.89,-5.27,-6.97,0,*77
1534802493.71,15111,22.25,74582.8,7.93,-5.23,-6.89,0,*76
1534802494.96,15112,22.25,74582.3,7.93,-5.23,-6.93,0,*7E
1534802496.18,15113,22.25,74584.3,7.89,-5.31,-7.11,0,*7C
1534802497.43,15114,22.25,74584.8,7.93,-5.31,-6.93,0,*7B
1534802498.67,15115,22.25,74582.3,7.89,-5.31,-6.97,0,*75
1534802499.91,15116,22.25,74582.0,7.89,-5.27,-6.97,0,*71
1534802501.13,15117,22.25,74586.3,7.89,-5.39,-6.97,0,*7F
1534802502.35,15118,22.25,74582.0,7.89,-5.27,-6.85,0,*7C
1534802503.56,15119,22.25,74576.3,7.89,-5.27,-6.85,0,*7D
1534802504.79,15120,22.25,74582.3,7.89,-5.23,-6.81,0,*77
1534802506.01,15121,22.25,74578.8,7.93,-5.27,-6.81,0,*79
1534802507.23,15122,22.25,74582.3,7.89,-5.31,-6.85,0,*72
1534802508.48,15123,22.25,74580.5,7.89,-5.31,-6.93,0,*74
1534802509.67,15124,22.25,74584.0,7.89,-5.39,-6.85,0,*7C
1534802510.87,15125,22.25,74584.8,7.89,-5.39,-6.81,0,*79
1534802512.06,15126,22.25,74586.0,7.93,-5.47,-6.89,0,*70
1534802513.27,15127,22.25,74586.8,7.87,-5.43,-6.89,0,*70
1534802514.47,15128,22.25,74584.8,7.89,-5.39,-6.85,0,*70
1534802515.68,15129,22.25,74588.3,7.87,-5.43,-6.85,0,*72
1534802516.9,15130,22.25,74588.5,7.87,-5.35,-6.89,0,*77
1534802518.12,15131,22.25,74590.5,7.87,-5.35,-6.89,0,*76
1534802519.33,15132,22.25,74590.5,7.89,-5.31,-6.73,0,*7A
1534802520.55,15133,22.25,74590.5,7.89,-5.27,-6.69,0,*77
1534802521.82,15134,22.25,74588.0,7.87,-5.27,-6.63,0,*74
1534802523.09,15135,22.25,74586.5,7.87,-5.19,-6.63,0,*78
1534802524.31,15136,22.25,74586.5,7.89,-5.15,-6.55,0,*7C
1534802525.52,15137,22.25,74584.5,7.93,-5.11,-6.43,0,*75
1534802526.75,15138,22.25,74586.8,7.89,-5.15,-6.47,0,*71
1534802527.97,15139,22.25,74588.5,7.89,-5.15,-6.47,0,*70
1534802529.19,15140,22.25,74590.8,7.89,-5.23,-6.43,0,*7F
1534802530.4,15141,22.25,74586.3,7.93,-5.11,-6.43,0,*74
1534802531.62,15142,22.25,74590.0,7.89,-5.11,-6.47,0,*78
1534802532.83,15143,22.25,74586.3,7.89,-5.11,-6.35,0,*7C
1534802534.06,15144,22.25,74586.5,7.89,-5.15,-6.43,0,*7E
1534802535.28,15145,22.25,74584.8,7.89,-5.23,-6.43,0,*7A
1534802536.5,15146,22.25,74588.8,7.93,-5.19,-6.43,0,*7B
1534802537.71,15147,22.25,74588.0,7.89,-5.27,-6.55,0,*7B
1534802538.94,15148,22.25,74588.0,7.93,-5.23,-6.55,0,*7B
1534802540.16,15149,22.25,74592.0,7.93,-5.19,-6.43,0,*74
1534802541.38,15150,22.25,74586.0,7.93,-5.23,-6.51,0,*76
1534802542.6,15151,22.25,74586.0,7.93,-5.23,-6.55,0,*73
1534802543.83,15152,22.25,74588.3,7.93,-5.23,-6.55,0,*70
1534802545.04,15153,22.25,74588.3,7.89,-5.27,-6.47,0,*7D
1534802546.26,15154,22.25,74588.0,7.93,-5.27,-6.51,0,*76
1534802547.48,15155,22.25,74590.3,7.93,-5.27,-6.43,0,*74
1534802548.7,15156,22.25,74586.3,7.89,-5.31,-6.47,0,*7F
1534802549.92,15157,22.25,74590.5,7.93,-5.23,-6.39,0,*7F
1534802551.15,15158,22.25,74588.0,7.89,-5.31,-6.43,0,*75
1534802552.36,15159,22.25,74584.5,7.93,-5.19,-6.39,0,*78
1534802553.58,15160,22.25,74584.5,7.93,-5.23,-6.39,0,*7B
1534802554.77,15161,22.25,74588.0,7.93,-5.35,-6.43,0,*70
1534802555.97,15162,22.25,74588.3,7.89,-5.39,-6.55,0,*73
1534802557.18,15163,22.25,74582.3,7.93,-5.27,-6.39,0,*7C
1534802558.4,15164,22.25,74582.8,7.93,-5.23,-6.39,0,*7F
1534802559.63,15165,22.25,74580.3,7.93,-5.23,-6.31,0,*76
1534802560.82,15166,22.25,74582.8,7.93,-5.35,-6.43,0,*77
1534802562.01,15167,22.25,74588.8,7.93,-5.39,-6.55,0,*7D
1534802563.21,15168,22.25,74582.5,7.93,-5.47,-6.55,0,*7B
1534802564.41,15169,22.25,74584.3,7.89,-5.55,-6.55,0,*72
1534802565.61,15170,22.25,74588.3,7.93,-5.51,-6.51,0,*71
1534802566.8,15171,22.25,74588.5,7.93,-5.47,-6.55,0,*73
1534802567.99,15172,22.25,74586.0,7.93,-5.39,-6.39,0,*73
1534802569.19,15173,22.25,74588.5,7.93,-5.35,-6.43,0,*73
1534802570.38,15174,22.25,74586.5,7.93,-5.47,-6.43,0,*71
1534802571.6,15175,22.25,74584.5,7.95,-5.39,-6.51,0,*7C
1534802572.82,15176,22.25,74584.5,7.95,-5.47,-6.55,0,*72
1534802574.04,15177,22.25,74590.3,7.95,-5.39,-6.51,0,*7E
1534802575.25,15178,22.25,74584.0,7.95,-5.47,-6.39,0,*76
1534802576.47,15179,22.25,74578.3,7.95,-5.39,-6.43,0,*73
1534802577.68,15180,22.25,74576.0,7.95,-5.39,-6.39,0,*78
1534802578.9,15181,22.25,74574.3,7.95,-5.47,-6.43,0,*7D
1534802580.14,15182,22.25,74578.8,7.95,-5.61,-6.55,0,*7D
1534802581.38,15183,22.25,74582.0,7.95,-5.61,-6.55,0,*7C
1534802582.62,15184,22.25,74582.5,7.95,-5.61,-6.55,0,*7B
1534802583.86,15185,22.25,74584.5,7.93,-5.61,-6.63,0,*79
1534802585.07,15186,22.25,74582.3,7.93,-5.73,-6.69,0,*73
1534802586.28,15187,22.25,74586.3,7.93,-5.73,-6.69,0,*72
1534802587.49,15188,22.25,74586.3,7.93,-5.73,-6.69,0,*7D
1534802588.73,15189,22.25,74584.5,7.93,-5.73,-6.63,0,*76
1534802589.97,15190,22.25,74582.8,7.93,-5.65,-6.63,0,*79
1534802591.19,15191,22.25,74584.3,7.89,-5.69,-6.69,0,*75
1534802592.41,15192,22.25,74586.3,7.93,-5.61,-6.55,0,*7A
1534802593.62,15193,22.25,74588.0,7.93,-5.61,-6.51,0,*7F
1534802594.82,15194,22.25,74584.5,7.89,-5.55,-6.55,0,*70
1534802596.04,15195,22.25,74584.3,7.93,-5.61,-6.55,0,*7D
1534802597.26,15196,22.25,74582.3,7.93,-5.61,-6.55,0,*7E
1534802598.47,15197,22.25,74582.8,7.93,-5.61,-6.55,0,*7F
1534802599.69,15198,22.25,74580.0,7.93,-5.65,-6.55,0,*74
1534802600.91,15199,22.25,74582.3,7.93,-5.73,-6.55,0,*72
1534802602.13,15200,22.25,74582.8,7.93,-5.65,-6.55,0,*76
1534802603.34,15201,22.25,74582.3,7.93,-5.73,-6.69,0,*7F
1534802604.56,15202,22.25,74584.3,7.93,-5.85,-6.69,0,*75
1534802605.8,15203,22.25,74586.0,7.93,-5.77,-6.63,0,*73
1534802607.02,15204,22.25,74586.5,7.93,-5.77,-6.69,0,*7E
1534802608.23,15205,22.25,74586.5,7.93,-5.85,-6.69,0,*72
1534802609.48,15206,22.25,74590.0,7.93,-5.77,-6.63,0,*76
1534802610.72,15207,22.25,74584.8,7.93,-5.73,-6.63,0,*73
1534802611.96,15208,22.25,74582.0,7.93,-5.65,-6.63,0,*7B
1534802613.17,15209,22.25,74576.8,7.93,-5.73,-6.69,0,*77
1534802614.4,15210,22.25,74582.0,7.93,-5.85,-6.81,0,*70
1534802615.59,15211,22.25,74582.0,7.93,-5.97,-6.77,0,*7B
1534802616.82,15212,22.25,74584.0,7.93,-5.89,-6.81,0,*7E
1534802618.06,15213,22.25,74590.5,7.95,-5.89,-6.77,0,*70
1534802619.28,15214,22.25,74584.0,7.93,-5.89,-6.77,0,*71
1534802620.48,15215,22.25,74582.0,7.89,-6.01,-6.81,0,*71
1534802621.7,15216,22.25,74582.8,7.93,-5.89,-6.77,0,*73
1534802622.92,15217,22.25,74584.5,7.93,-5.89,-6.81,0,*7B
1534802624.16,15218,22.25,74584.3,7.95,-5.89,-6.77,0,*7B
1534802625.41,15219,22.25,74580.5,7.95,-5.85,-6.77,0,*76
1534802626.6,15220,22.25,74578.8,7.93,-5.97,-6.77,0,*79
1534802627.8,15221,22.25,74582.8,7.93,-5.97,-6.81,0,*71
1534802629.0,15222,22.25,74582.8,7.93,-6.01,-6.89,0,*76
1534802630.19,15223,22.25,74582.0,7.93,-5.97,-6.89,0,*7B
1534802631.38,15224,22.25,74580.0,7.93,-5.97,-6.89,0,*7C
1534802632.58,15225,22.25,74580.0,7.93,-5.97,-6.89,0,*7D
1534802633.77,15226,22.25,74586.3,7.93,-5.97,-6.89,0,*7E
1534802634.99,15227,22.25,74588.8,7.89,-6.09,-6.97,0,*7F
1534802636.2,15228,22.25,74586.3,7.93,-6.13,-7.05,0,*7A
1534802637.41,15229,22.25,74588.0,7.93,-6.13,-7.05,0,*7B
1534802638.66,15230,22.25,74580.5,7.89,-6.19,-6.97,0,*78
1534802639.88,15231,22.25,74584.5,7.93,-6.01,-6.93,0,*7F
1534802641.07,15232,22.25,74586.3,7.89,-6.05,-6.85,0,*74
1534802642.28,15233,22.25,74582.3,7.93,-6.13,-6.93,0,*7E
1534802643.53,15234,22.25,74584.0,7.89,-6.19,-6.97,0,*7C
1534802644.77,15235,22.25,74580.0,7.93,-6.19,-7.05,0,*7C
1534802645.96,15236,22.25,74580.5,7.93,-6.13,-7.11,0,*70
1534802647.19,15237,22.25,74586.3,7.89,-6.23,-7.11,0,*79
1534802648.42,15238,22.25,74588.5,7.93,-6.19,-7.05,0,*71
1534802649.67,15239,22.25,74584.8,7.89,-6.19,-7.01,0,*7F
1534802650.89,15240,22.25,74586.3,7.93,-6.13,-6.93,0,*7A
1534802652.11,15241,22.25,74586.5,7.89,-6.23,-7.11,0,*78
1534802653.35,15242,22.25,74588.0,7.93,-6.19,-7.05,0,*7C
1534802654.56,15243,22.25,74588.5,7.93,-6.27,-7.19,0,*7D
1534802655.8,15244,22.25,74590.0,7.89,-6.23,-7.01,0,*7C
1534802657.04,15245,22.25,74586.5,7.89,-6.23,-6.97,0,*73
1534802658.26,15246,22.25,74590.3,7.89,-6.05,-6.93,0,*70
1534802659.48,15247,22.25,74586.8,7.89,-6.09,-6.93,0,*7D
1534802660.72,15248,22.25,74586.3,7.89,-6.23,-6.97,0,*7E
1534802661.94,15249,22.25,74586.5,7.93,-6.09,-6.97,0,*7C
1534802663.18,15250,22.25,74586.0,7.93,-6.19,-7.05,0,*7F
1534802664.38,15251,22.25,74588.3,7.89,-6.35,-7.11,0,*7E
1534802665.61,15252,22.25,74586.0,7.93,-6.27,-7.05,0,*70
1534802666.81,15253,22.25,74586.3,7.93,-6.31,-7.11,0,*73
1534802668.01,15254,22.25,74588.8,7.89,-6.35,-7.23,0,*7A
1534802669.21,15255,22.25,74586.5,7.89,-6.35,-7.23,0,*7B
1534802670.41,15256,22.25,74586.5,7.93,-6.31,-7.19,0,*7E
1534802671.62,15257,22.25,74588.8,7.93,-6.27,-7.11,0,*70
1534802672.84,15258,22.25,74590.5,7.89,-6.31,-7.01,0,*72
1534802674.06,15259,22.25,74588.3,7.89,-6.09,-7.01,0,*78
1534802675.31,15260,22.19,74582.5,7.93,-6.19,-6.97,0,*76
1534802676.55,15261,22.25,74588.0,7.93,-6.19,-6.97,0,*77
1534802677.8,15262,22.25,74588.5,7.93,-6.19,-6.97,0,*74
1534802679.04,15263,22.25,74588.3,7.93,-6.19,-6.97,0,*75
1534802680.28,15264,22.25,74590.3,7.93,-6.19,-7.05,0,*78
1534802681.48,15265,22.25,74590.5,7.89,-6.35,-7.11,0,*79
1534802682.7,15266,22.25,74586.3,7.93,-6.31,-6.97,0,*7A
1534802683.92,15267,22.19,74586.3,7.89,-6.27,-7.15,0,*7C
1534802685.11,15268,22.25,74586.5,7.93,-6.31,-7.11,0,*7B
1534802686.35,15269,22.25,74584.3,7.93,-6.27,-7.05,0,*78
1534802687.56,15270,22.25,74584.3,7.93,-6.31,-7.05,0,*77
1534802688.75,15271,22.25,74588.0,7.93,-6.39,-7.19,0,*73
1534802689.97,15272,22.25,74588.5,7.95,-6.39,-7.19,0,*76
1534802691.16,15273,22.25,74586.5,7.93,-6.39,-7.23,0,*78
1534802692.38,15274,22.25,74586.0,7.95,-6.39,-7.19,0,*70
1534802693.6,15275,22.25,74584.8,7.93,-6.43,-7.31,0,*70
1534802694.79,15276,22.25,74584.8,7.93,-6.43,-7.23,0,*70
1534802695.99,15277,22.25,74584.0,7.93,-6.39,-7.19,0,*75
1534802697.19,15278,22.25,74584.8,7.93,-6.43,-7.23,0,*7E
1534802698.41,15279,22.25,74588.0,7.93,-6.43,-7.31,0,*7C
1534802699.63,15280,22.25,74586.0,7.93,-6.55,-7.31,0,*7D
1534802700.87,15281,22.25,74586.5,7.95,-6.55,-7.31,0,*7A
1534802702.11,15282,22.25,74584.3,7.93,-6.63,-7.31,0,*7A
1534802703.32,15283,22.25,74588.0,7.93,-6.69,-7.35,0,*75
1534802704.54,15284,22.25,74588.8,7.93,-6.55,-7.31,0,*79
1534802705.76,15285,22.25,74588.0,7.93,-6.59,-7.27,0,*73
1534802706.98,15286,22.25,74586.8,7.89,-6.55,-7.35,0,*74
1534802708.18,15287,22.25,74590.5,7.93,-6.51,-7.23,0,*7D
1534802709.4,15288,22.25,74588.3,7.93,-6.43,-7.31,0,*72
1534802710.6,15289,22.25,74592.3,7.93,-6.51,-7.23,0,*73
1534802711.8,15290,22.25,74588.5,7.93,-6.39,-7.23,0,*75
1534802712.99,15291,22.25,74590.3,7.93,-6.39,-7.11,0,*75
1534802714.19,15292,22.25,74592.5,7.89,-6.43,-7.23,0,*71
1534802715.43,15293,22.25,74590.0,7.95,-6.43,-7.31,0,*7E
1534802716.63,15294,22.25,74584.5,7.93,-6.39,-7.11,0,*70
1534802717.84,15295,22.25,74584.8,7.97,-6.39,-7.05,0,*70
1534802719.06,15296,22.25,74588.3,7.95,-6.55,-7.23,0,*7F
1534802720.31,15297,22.25,74586.5,7.95,-6.51,-7.31,0,*79
1534802721.54,15298,22.25,74586.5,7.95,-6.69,-7.31,0,*7D
1534802722.76,15299,22.25,74584.5,7.93,-6.69,-7.35,0,*7E
1534802724.02,15300,22.25,74582.3,7.95,-6.63,-7.35,0,*73
1534802725.26,15301,22.25,74586.3,7.95,-6.69,-7.35,0,*78
1534802726.47,15302,22.25,74586.3,7.93,-6.69,-7.35,0,*7D
1534802727.71,15303,22.25,74586.5,7.93,-6.63,-7.35,0,*76
1534802728.92,15304,22.25,74588.5,7.93,-6.69,-7.35,0,*7B
1534802730.18,15305,22.25,74584.0,7.95,-6.63,-7.35,0,*76
1534802731.41,15306,22.25,74586.3,7.97,-6.51,-7.27,0,*75
1534802732.61,15307,22.25,74588.3,7.93,-6.55,-7.23,0,*70
1534802733.8,15308,22.25,74584.3,7.97,-6.51,-7.19,0,*76
1534802735.05,15309,22.25,74586.3,7.95,-6.55,-7.31,0,*7B
1534802736.26,15310,22.25,74584.8,7.93,-6.69,-7.35,0,*7E
1534802737.5,15311,22.25,74588.3,7.93,-6.63,-7.35,0,*75
1534802738.74,15312,22.25,74586.5,7.93,-6.63,-7.35,0,*76
1534802739.95,15313,22.25,74584.3,7.97,-6.63,-7.19,0,*7D
1534802741.19,15314,22.25,74580.0,7.95,-6.69,-7.31,0,*78
1534802742.43,15315,22.25,74580.3,7.95,-6.69,-7.31,0,*79
1534802743.67,15316,22.25,74582.0,7.95,-6.77,-7.35,0,*71
1534802744.92,15317,22.25,74584.8,7.95,-6.77,-7.43,0,*71
1534802746.14,15318,22.25,74584.5,7.93,-6.81,-7.43,0,*71
1534802747.37,15319,22.25,74582.8,7.93,-6.81,-7.35,0,*71
1534802748.59,15320,22.25,74582.8,7.93,-6.81,-7.35,0,*7B
1534802749.81,15321,22.25,74582.8,7.93,-6.77,-7.35,0,*73
1534802751.03,15322,22.25,74580.8,7.93,-6.77,-7.35,0,*70
1534802752.25,15323,22.25,74582.8,7.93,-6.77,-7.35,0,*71
1534802753.47,15324,22.25,74576.5,7.93,-6.69,-7.31,0,*7D
1534802754.66,15325,22.25,74580.3,7.93,-6.69,-7.23,0,*7F
1534802755.9,15326,22.25,74580.5,7.97,-6.63,-7.27,0,*76
1534802757.12,15327,22.25,74580.5,7.93,-6.77,-7.31,0,*71
1534802758.38,15328,22.25,74580.8,7.95,-6.63,-7.31,0,*7D
1534802759.59,15329,22.25,74578.5,7.93,-6.69,-7.31,0,*70
1534802760.81,15330,22.25,74580.3,7.89,-6.69,-7.27,0,*74
1534802762.03,15331,22.25,74582.0,7.89,-6.73,-7.27,0,*7E
1534802763.26,15332,22.19,74578.3,7.93,-6.63,-7.31,0,*70
1534802764.5,15333,22.25,74580.0,7.95,-6.63,-7.23,0,*74
1534802765.74,15334,22.25,74580.3,7.89,-6.63,-7.27,0,*7A
1534802766.97,15335,22.25,74580.5,7.95,-6.51,-7.11,0,*72
1534802768.17,15336,22.25,74584.5,7.93,-6.55,-7.11,0,*73
1534802769.38,15337,22.25,74586.3,7.93,-6.51,-7.05,0,*73
1534802770.59,15338,22.25,74582.8,7.93,-6.55,-7.05,0,*78
1534802771.8,15339,22.25,74586.3,7.93,-6.51,-7.11,0,*78
1534802773.0,15340,22.25,74582.3,7.93,-6.51,-7.11,0,*76
1534802774.21,15341,22.25,74584.3,7.93,-6.51,-7.05,0,*72
1534802775.44,15342,22.19,74582.0,7.93,-6.51,-6.97,0,*7B
1534802776.66,15343,22.25,74582.0,7.93,-6.51,-6.97,0,*7A
1534802777.87,15344,22.25,74580.0,7.93,-6.51,-7.05,0,*77
1534802779.11,15345,22.25,74580.3,7.95,-6.51,-7.05,0,*70
1534802780.35,15346,22.19,74580.0,7.95,-6.55,-7.05,0,*77
1534802781.58,15347,22.25,74580.0,7.95,-6.55,-7.05,0,*76
1534802782.8,15348,22.25,74582.0,7.93,-6.51,-7.05,0,*7B
1534802784.0,15349,22.25,74580.8,7.93,-6.55,-7.11,0,*7B
1534802785.22,15350,22.19,74578.5,7.95,-6.69,-7.11,0,*7A
1534802786.43,15351,22.19,74576.8,7.93,-6.63,-7.11,0,*77
1534802787.63,15352,22.25,74582.8,7.93,-6.55,-7.11,0,*71
1534802788.83,15353,22.25,74582.0,7.93,-6.55,-7.11,0,*70
1534802790.05,15354,22.25,74582.3,7.93,-6.63,-7.11,0,*72
1534802791.24,15355,22.19,74580.0,7.97,-6.59,-7.15,0,*7A
1534802792.48,15356,22.25,74580.5,7.95,-6.63,-7.11,0,*76
1534802793.72,15357,22.25,74582.5,7.95,-6.51,-7.05,0,*73
1534802794.94,15358,22.25,74582.0,7.89,-6.47,-7.01,0,*72
1534802796.13,15359,22.19,74578.3,7.93,-6.39,-6.89,0,*70
1534802797.34,15360,22.25,74582.8,7.95,-6.39,-6.89,0,*7C
1534802798.54,15361,22.25,74582.0,7.97,-6.35,-6.77,0,*72
1534802799.75,15362,22.25,74582.5,7.95,-6.39,-6.89,0,*7E
1534802800.98,15363,22.25,74582.8,7.95,-6.31,-6.81,0,*7F
1534802802.21,15364,22.25,74582.0,7.95,-6.39,-6.93,0,*73
1534802803.43,15365,22.25,74580.3,7.95,-6.39,-6.89,0,*79
1534802804.64,15366,22.25,74580.3,7.95,-6.39,-6.89,0,*7A
1534802805.85,15367,22.19,74580.8,7.95,-6.39,-6.89,0,*7B
1534802807.07,15368,22.19,74580.0,7.95,-6.39,-6.89,0,*74
1534802808.29,15369,22.25,74582.3,7.95,-6.43,-6.89,0,*78
1534802809.48,15370,22.19,74582.0,7.93,-6.43,-6.89,0,*76
1534802810.67,15371,22.25,74584.8,7.93,-6.39,-6.89,0,*7A
1534802811.86,15372,22.19,74582.5,7.93,-6.43,-6.89,0,*74
1534802813.08,15373,22.25,74582.0,7.95,-6.39,-6.89,0,*7E
1534802814.29,15374,22.25,74584.0,7.95,-6.39,-6.89,0,*79
1534802815.51,15375,22.25,74582.3,7.95,-6.43,-6.81,0,*7D
1534802816.76,15376,22.25,74580.5,7.95,-6.43,-6.93,0,*7D
1534802817.97,15377,22.25,74586.3,7.95,-6.43,-6.89,0,*77
1534802819.19,15378,22.19,74580.5,7.95,-6.39,-6.89,0,*75
1534802820.4,15379,22.19,74582.8,7.95,-6.39,-6.89,0,*74
1534802821.62,15380,22.25,74584.5,7.95,-6.43,-6.89,0,*7F
1534802822.86,15381,22.19,74582.5,7.95,-6.43,-6.93,0,*75
1534802824.1,15382,22.25,74584.0,7.95,-6.39,-6.93,0,*7B
1534802825.29,15383,22.25,74586.3,7.97,-6.35,-6.85,0,*73
1534802826.51,15384,22.19,74582.5,7.95,-6.39,-6.89,0,*76
1534802827.72,15385,22.19,74582.0,7.95,-6.43,-6.89,0,*7A
1534802828.94,15386,22.25,74582.8,7.95,-6.39,-6.89,0,*74
1534802830.18,15387,22.19,74584.8,7.95,-6.43,-6.93,0,*73
1534802831.37,15388,22.19,74584.0,7.97,-6.39,-6.77,0,*79
1534802832.59,15389,22.25,74584.0,7.95,-6.39,-6.81,0,*73
1534802833.81,15390,22.19,74582.5,7.95,-6.43,-6.89,0,*7E
1534802835.04,15391,22.19,74584.8,7.95,-6.39,-6.93,0,*79
1534802836.28,15392,22.25,74584.8,7.95,-6.39,-6.93,0,*7A
1534802837.52,15393,22.25,74590.0,7.95,-6.39,-6.93,0,*7B
1534802838.72,15394,22.19,74584.8,7.97,-6.35,-6.85,0,*75
1534802839.96,15395,22.19,74582.3,7.95,-6.43,-6.93,0,*70
1534802841.2,15396,22.25,74590.0,7.95,-6.55,-6.93,0,*74
1534802842.42,15397,22.19,74586.5,7.95,-6.43,-6.89,0,*79
1534802843.62,15398,22.25,74584.0,7.93,-6.39,-6.81,0,*75
1534802844.84,15399,22.25,74588.0,7.95,-6.39,-6.81,0,*72
1534802846.04,15400,22.19,74584.5,7.93,-6.31,-6.81,0,*7B
1534802847.23,15401,22.25,74586.3,7.93,-6.31,-6.77,0,*73
1534802848.42,15402,22.19,74584.3,7.93,-6.31,-6.69,0,*7F
1534802849.61,15403,22.19,74584.5,7.89,-6.35,-6.69,0,*71
1534802850.8,15404,22.25,74586.5,7.93,-6.31,-6.69,0,*79
1534802851.99,15405,22.19,74584.3,7.93,-6.31,-6.69,0,*78
1534802853.21,15406,22.25,74584.3,7.95,-6.31,-6.77,0,*72
1534802854.41,15407,22.19,74578.8,7.93,-6.31,-6.81,0,*7C
1534802855.6,15408,22.19,74584.8,7.89,-6.43,-6.85,0,*79
1534802856.8,15409,22.19,74586.5,7.93,-6.39,-6.77,0,*73
1534802857.99,15410,22.19,74584.8,7.93,-6.39,-6.81,0,*72
1534802859.21,15411,22.19,74582.3,7.93,-6.27,-6.77,0,*75
1534802860.4,15412,22.25,74586.0,7.93,-6.31,-6.69,0,*7E
1534802861.61,15413,22.19,74586.3,7.95,-6.31,-6.77,0,*76
1534802862.81,15414,22.19,74586.5,7.93,-6.31,-6.77,0,*77
1534802864.0,15415,22.25,74588.0,7.93,-6.39,-6.69,0,*71
1534802865.18,15416,22.25,74590.5,7.93,-6.39,-6.69,0,*72
1534802866.38,15417,22.25,74588.5,7.93,-6.39,-6.81,0,*75
1534802867.6,15418,22.19,74584.3,7.93,-6.31,-6.63,0,*7E
1534802868.79,15419,22.25,74580.8,7.93,-6.31,-6.69,0,*75
1534802869.98,15420,22.25,74582.3,7.93,-6.31,-6.69,0,*7F
1534802871.2,15421,22.19,74584.0,7.93,-6.31,-6.63,0,*74
1534802872.39,15422,22.19,74582.5,7.93,-6.31,-6.69,0,*7D
1534802873.61,15423,22.25,74586.3,7.93,-6.31,-6.63,0,*76
1534802874.8,15424,22.25,74584.8,7.93,-6.31,-6.77,0,*74
1534802876.0,15425,22.25,74588.5,7.93,-6.39,-6.77,0,*7D
1534802877.19,15426,22.19,74588.3,7.89,-6.43,-6.85,0,*75
1534802878.38,15427,22.19,74584.8,7.93,-6.39,-6.77,0,*7F
1534802879.57,15428,22.19,74590.0,7.93,-6.43,-6.77,0,*7D
1534802880.77,15429,22.19,74588.8,7.93,-6.43,-6.81,0,*75
1534802881.97,15430,22.25,74588.3,7.89,-6.43,-6.81,0,*76
1534802883.16,15431,22.25,74588.3,7.89,-6.47,-6.85,0,*77
1534802884.36,15432,22.25,74586.5,7.89,-6.43,-6.81,0,*74
1534802885.56,15433,22.19,74582.8,7.89,-6.43,-6.81,0,*75
1534802886.75,15434,22.19,74578.0,7.89,-6.39,-6.69,0,*79
1534802887.94,15435,22.19,74574.5,7.89,-6.47,-6.85,0,*73
1534802889.14,15436,22.25,74582.8,7.89,-6.55,-6.81,0,*77
1534802890.34,15437,22.25,74588.5,7.93,-6.55,-6.81,0,*7D
1534802891.54,15438,22.19,74586.5,7.89,-6.55,-6.81,0,*79
1534802892.73,15439,22.19,74586.5,7.89,-6.43,-6.73,0,*72
1534802893.92,15440,22.25,74584.3,7.89,-6.47,-6.73,0,*78
1534802895.11,15441,22.19,74584.3,7.89,-6.43,-6.73,0,*7D
1534802896.3,15442,22.19,74586.5,7.93,-6.39,-6.69,0,*73
1534802897.49,15443,22.25,74584.5,7.93,-6.43,-6.69,0,*7F
1534802898.71,15444,22.25,74586.0,7.93,-6.39,-6.63,0,*7F
1534802899.9,15445,22.25,74586.0,7.89,-6.47,-6.73,0,*7D
1534802901.09,15446,22.25,74588.8,7.89,-6.43,-6.69,0,*71
1534802902.28,15447,22.19,74582.8,7.89,-6.43,-6.59,0,*73
1534802903.47,15448,22.19,74580.0,7.89,-6.47,-6.69,0,*7B
1534802904.66,15449,22.19,74584.0,7.93,-6.43,-6.77,0,*7A
1534802905.86,15450,22.25,74584.0,7.89,-6.55,-6.73,0,*7A
1534802907.05,15451,22.19,74586.5,7.89,-6.31,-6.55,0,*7D
1534802908.25,15452,22.25,74584.0,7.89,-6.35,-6.59,0,*76
1534802909.45,15453,22.19,74582.8,7.93,-6.31,-6.55,0,*74
1534802910.65,15454,22.25,74584.3,7.89,-6.35,-6.55,0,*7C
1534802911.84,15455,22.19,74580.8,7.89,-6.35,-6.55,0,*7D
1534802913.04,15456,22.19,74580.0,7.89,-6.35,-6.47,0,*7D